Location: Cortada de Papelón
(10.0378°N, 66.9528°W)
Time: 10:19:20
(UTC+00:00)

Meteor PRIRODA - Pass Details

Date: 13 June 2024
Orbit: 438 x 449 km, 97.5° (Epoch: 19 July)

Event Time Altitude Azimuth Distance (km) Brightness Sun altitude
Exits shadow 23:37:54 12° 156° (SSE) 1,470 5.5 -11.7°
Maximum altitude 23:40:57 55° 78° (ENE) 540 3.5 -12.3°
Drops below altitude 10° 23:44:13 10° 360° (N) 1,557 6.5 -13.1°
Sets 23:46:15 0° 356° (N) 2,423 7.6 -13.5°
